Other Public Products
Issued by NWS Charleston, SC

Current Version | Previous Version | Text Only | Print | Product List | Glossary Off
Versions: 1 2 3 4 5 6 7 8 9 10 11 12 13 14 15 16 17 18 19 20 21 22 23 24 25 26 27 28 29 30 31 32 33 34 35 36 37 38 39 40 41 42 43 44 45 46 47 48 49 50

413
FPUS82 KCHS 180227
OPUCHS

TEST...KCHS/KSAV Gateway Observations...TEST
National Weather Service Charleston SC
900 PM EST TUE JAN 17 2017

NOTE: "fair" indicates few or no clouds below 12,000 feet with no
significant weather and/or obstructions to visibility.

SCZ050-WAZ558-NCZ071-TXZ119-213-PAZ071-DCZ001-FLZ074-172-MI076-
NYZ176-178-MAZ016-IL014-TNZ027-NJZ106-GAZ044-MD014-180300-
...Gateway Observations for Charleston International...

CITY           SKY/WX    TMP DP  RH WIND       PRES   REMARKS
Chas Airport   CLOUDY    62  59  90 SW10      30.20R
Seattle        RAIN      44  43  96 CALM      29.54S FOG
Charlotte      CLOUDY    60  55  83 S7        30.10F
Dallas DFW     LGT RAIN  48  45  89 NW9       30.16S
Dallas Love    LGT RAIN  48  44  86 N8        30.17S
Philladelphia  CLOUDY    43  42  97 NE3       29.97F FOG
Wash National  CLOUDY    50  50 100 CALM      29.94F FOG
Baltimore      FOG       44  44 100 NE3       29.93F VSB 1/4
Miami          PTCLDY    74  61  63 E5        30.21F
Detroit        CLOUDY    41  38  89 W12       29.90R
Newark         LGT RAIN  41  39  93 NE7       30.02F FOG
Laguardia      LGT RAIN  40  37  89 NE12      30.02F FOG     WCI  33
J F K          LGT RAIN  42  38  85 NE7       30.03F FOG
Boston Logan   LGT RAIN  37  35  92 E21       30.16F WCI  26
Ft. Lauderdale PTCLDY    73  61  65 E8        30.21S
Chicago O`Hare DRIZZLE   35  34  96 W10       29.97R FOG     WCI  27
Chicago Midway CLOUDY    34  33  96 W13       29.99R FOG     WCI  25
Houston Bush   FOG       59  58  96 N8        30.07R VSB 1
Houston Hobby  CLOUDY    62  60  93 NE12      30.05S
Nashville      CLOUDY    55  43  63 W5        30.13R
Atlanta        MOCLDY    64  57  78 SW6       30.16F

$$

GAZ044-118-TXZ119-213-NCZ071-DCZ001-MDZ014-506-PAZ021-071-NJZ106-
NYZ176-178-MAZ106-OHZ011-021-055-MIZ076-KYZ091-ILZ014-INZ047-
MNZ060-180300-
...Gateway Observations for Savannah International...

CITY           SKY/WX    TMP DP  RH WIND       PRES   REMARKS
Savannah Arpt  CLEAR     63  58  83 S9        30.21S
Atlanta        MOCLDY    64  57  78 SW6       30.16F
Charlotte      CLOUDY    60  55  83 S7        30.10F
Dallas DFW     LGT RAIN  48  45  89 NW9       30.16S
Houston Bush   FOG       59  58  96 N8        30.07R VSB 1
Wash National  CLOUDY    50  50 100 CALM      29.94F FOG
Wash Dulles    CLOUDY    52  50  93 S7        29.92F
Baltimore      FOG       44  44 100 NE3       29.93F VSB 1/4
Philadelphia   CLOUDY    43  42  97 NE3       29.97F FOG
Newark         LGT RAIN  41  39  93 NE7       30.02F FOG
Laguardia      LGT RAIN  40  37  89 NE12      30.02F FOG     WCI  33
J F K          LGT RAIN  42  38  85 NE7       30.03F FOG
Boston         LGT RAIN  37  35  92 E21       30.16F WCI  26
Pittsburg      CLOUDY    55  47  74 W9        29.87R
Akron          CLOUDY    53  41  63 W16G24    29.89R
Cleveland      CLOUDY    49  42  77 W16       29.92R
Cincinnati     CLOUDY    46  40  79 W9        30.02F
Columbus         N/A     47  41  81 W12       29.98S
Detroit        CLOUDY    41  38  89 W12       29.90R
Chicago O`Hare DRIZZLE   35  34  96 W10       29.97R FOG     WCI  27
Minneapolis    CLOUDY    32  29  88 SW9       29.99S FOG     WCI  24
Indianapolis   DRIZZLE   42  41  96 W13       30.03S FOG

$$




USA.gov is the U.S. government's official web portal to all federal, state and local government web resources and services.